Date String (YYYY-MM-DD hh:mm:ss) UTC,Instrument flags,Ambient pressure (hPa),Sample flow (lpm),Bypass flow (lpm),Sample temperature (°C),Ambient temperature (°C),ASC tube jacket temperature (°C),LED temperature (°C),Box temperature (°C),Sample RH (%),Span deviation,Mass concentration (μg/m³),Mass concentration (μg/m³),Mass concentration (μg/m³)
DateTimeUTC,F1_M11,P_M11,Q1_M11,Q2_M11,T1_M11,T2_M11,T3_M11,T4_M11,T5_M11,U1_M11,ZSPAN_M11,X0_M11,X2_M11,X1_M11
2022-02-21 17:00:00,,0811.0,4.99,0.00,23.4,22.9,00.0,32.2,25.3,06.9,0000.0,0004.25,0001.28,0000.68
2022-02-21 17:01:00,,0811.0,5.02,0.00,23.4,22.9,00.0,32.2,25.3,06.8,0000.0,0004.56,0001.29,0000.69
2022-02-21 17:02:00,,0811.0,4.99,0.00,23.5,22.9,00.0,32.3,25.3,06.8,0000.0,0004.55,0001.29,0000.69
2022-02-21 17:03:00,,0811.0,5.02,0.00,23.5,22.9,00.0,32.3,25.3,07.0,0000.0,0003.91,0001.21,0000.69
2022-02-21 17:04:00,,0811.0,5.00,0.00,23.5,23.0,00.0,32.3,25.4,06.9,0000.0,0004.32,0001.16,0000.69
2022-02-21 17:05:00,,0811.0,4.99,0.00,23.5,23.0,00.0,32.3,25.4,07.1,0000.0,0004.67,0001.14,0000.70
2022-02-21 17:06:00,,0811.0,5.02,0.00,23.6,23.0,00.0,32.3,25.5,06.8,0000.0,0004.68,0001.18,0000.70
2022-02-21 17:07:00,,0811.0,5.01,0.00,23.6,23.0,00.0,32.4,25.5,06.9,0000.0,0004.47,0001.15,0000.70
2022-02-21 17:08:00,,0811.0,4.99,0.00,23.6,23.1,00.0,32.4,25.5,06.9,0000.0,0003.76,0001.15,0000.71
2022-02-21 17:09:00,,0811.0,5.02,0.00,23.6,23.1,00.0,32.4,25.5,07.0,0000.0,0003.81,0001.17,0000.72
2022-02-21 17:10:00,,0811.0,4.99,0.00,23.7,23.1,00.0,32.4,25.5,06.8,0000.0,0004.21,0001.18,0000.73
2022-02-21 17:11:00,,0811.0,4.99,0.00,23.7,23.1,00.0,32.5,25.5,06.8,0000.0,0004.88,0001.25,0000.74
2022-02-21 17:12:00,,0810.9,5.01,0.00,23.7,23.1,00.0,32.5,25.6,06.8,0000.0,0004.94,0001.25,0000.74
2022-02-21 17:13:00,,0811.0,4.99,0.00,23.7,23.2,00.0,32.5,25.6,06.8,0000.0,0006.13,0001.28,0000.75
2022-02-21 17:14:00,,0810.9,5.01,0.00,23.8,23.2,00.0,32.5,25.6,06.8,0000.0,0006.20,0001.31,0000.75
2022-02-21 17:15:00,,0810.9,5.01,0.00,23.8,23.2,00.0,32.6,25.7,06.8,0000.0,0005.53,0001.30,0000.76
2022-02-21 17:16:00,,0810.9,5.00,0.00,23.8,23.2,00.0,32.6,25.7,06.9,0000.0,0005.25,0001.30,0000.76
2022-02-21 17:17:00,,0810.9,5.00,0.00,23.9,23.2,00.0,32.6,25.7,06.9,0000.0,0005.24,0001.29,0000.75
2022-02-21 17:18:00,,0810.9,4.99,0.00,23.9,23.3,00.0,32.6,25.8,06.8,0000.0,0005.02,0001.35,0000.75
2022-02-21 17:19:00,,0810.9,5.01,0.00,23.9,23.3,00.0,32.7,25.8,06.9,0000.0,0005.22,0001.37,0000.75
2022-02-21 17:20:00,,0810.9,5.00,0.00,23.9,23.3,00.0,32.7,25.9,07.2,0000.0,0005.52,0001.43,0000.75
2022-02-21 17:21:00,,0810.9,5.00,0.00,24.0,23.4,00.0,32.7,25.9,07.1,0000.0,0005.14,0001.42,0000.75
2022-02-21 17:22:00,,0810.9,4.99,0.00,24.0,23.4,00.0,32.7,25.9,07.1,0000.0,0004.41,0001.36,0000.75
2022-02-21 17:23:00,,0810.9,5.01,0.00,24.0,23.4,00.0,32.7,25.9,06.7,0000.0,0003.98,0001.37,0000.74
2022-02-21 17:24:00,,0810.9,4.98,0.00,24.0,23.4,00.0,32.8,26.0,07.1,0000.0,0002.92,0001.36,0000.73
2022-02-21 17:25:00,,0810.9,5.01,0.00,24.1,23.4,00.0,32.8,26.0,07.1,0000.0,0003.03,0001.39,0000.73
2022-02-21 17:26:00,,0811.0,4.99,0.00,24.1,23.5,00.0,32.8,26.0,06.8,0000.0,0003.08,0001.41,0000.73
2022-02-21 17:27:00,,0810.9,4.99,0.00,24.1,23.5,00.0,32.8,26.0,06.7,0000.0,0003.22,0001.45,0000.73
2022-02-21 17:28:00,,0810.9,5.00,0.00,24.1,23.5,00.0,32.9,26.1,06.8,0000.0,0003.33,0001.42,0000.74
2022-02-21 17:29:00,,0810.9,5.01,0.00,24.2,23.5,00.0,32.9,26.1,06.8,0000.0,0003.76,0001.36,0000.75
2022-02-21 17:30:00,,0810.9,5.01,0.00,24.2,23.5,00.0,32.9,26.1,07.0,0000.0,0004.02,0001.36,0000.76
2022-02-21 17:31:00,,0810.9,4.98,0.00,24.2,23.6,00.0,33.0,26.1,07.0,0000.0,0004.03,0001.36,0000.76
2022-02-21 17:32:00,,0810.9,5.01,0.00,24.2,23.6,00.0,33.0,26.2,07.0,0000.0,0004.06,0001.37,0000.76
2022-02-21 17:33:00,,0810.9,4.99,0.00,24.2,23.6,00.0,33.0,26.2,06.9,0000.0,0003.98,0001.34,0000.75
2022-02-21 17:34:00,,0810.9,4.99,0.00,24.3,23.6,00.0,33.0,26.2,07.0,0000.0,0004.21,0001.37,0000.76
2022-02-21 17:35:00,,0811.0,5.00,0.00,24.3,23.6,00.0,33.1,26.2,06.8,0000.0,0004.48,0001.35,0000.76
2022-02-21 17:36:00,,0811.0,5.00,0.00,24.3,23.6,00.0,33.1,26.2,06.8,0000.0,0004.35,0001.32,0000.75
2022-02-21 17:37:00,,0811.0,4.99,0.00,24.3,23.6,00.0,33.1,26.2,07.0,0000.0,0004.39,0001.32,0000.75
2022-02-21 17:38:00,,0811.0,5.00,0.00,24.3,23.7,00.0,33.1,26.2,07.1,0000.0,0004.35,0001.32,0000.74
2022-02-21 17:39:00,,0811.1,4.99,0.00,24.3,23.7,00.0,33.1,26.3,09.6,0000.0,0006.62,0001.50,0000.81
2022-02-21 17:40:00,,0811.1,5.01,0.00,24.3,23.7,00.0,33.2,26.3,11.8,0000.0,0008.83,0002.08,0001.10
2022-02-21 17:41:00,,0811.2,4.99,0.00,24.4,23.7,00.0,33.2,26.3,12.2,0000.0,0010.79,0002.63,0001.43
2022-02-21 17:42:00,,0811.2,5.01,0.00,24.4,23.6,00.0,33.2,26.3,12.4,0000.0,0012.32,0003.10,0001.78
2022-02-21 17:43:00,,0811.3,5.00,0.00,24.4,23.6,00.0,33.2,26.2,12.4,0000.0,0013.91,0003.42,0002.11
2022-02-21 17:44:00,,0811.5,5.01,0.00,24.4,23.6,00.0,33.2,26.3,12.4,0000.0,0015.29,0003.70,0002.45
2022-02-21 17:45:00,,0811.5,5.01,0.00,24.4,23.6,00.0,33.2,26.3,12.5,0000.0,0016.25,0003.91,0002.72
2022-02-21 17:46:00,,0811.6,4.99,0.00,24.4,23.6,00.0,33.3,26.3,12.2,0000.0,0017.18,0004.19,0003.04
2022-02-21 17:47:00,,0811.7,5.00,0.00,24.4,23.6,00.0,33.3,26.3,12.0,0000.0,0018.77,0004.54,0003.27
2022-02-21 17:48:00,,0811.7,4.99,0.00,24.4,23.6,00.0,33.3,26.3,11.9,0000.0,0020.07,0004.86,0003.47
2022-02-21 17:49:00,,0811.7,5.01,0.00,24.4,23.6,00.0,33.3,26.3,12.1,0000.0,0021.20,0005.12,0003.66
2022-02-21 17:50:00,,0811.7,4.99,0.00,24.4,23.6,00.0,33.3,26.2,12.4,0000.0,0020.74,0005.35,0003.84
2022-02-21 17:51:00,,0811.7,5.01,0.00,24.3,23.6,00.0,33.3,26.2,12.5,0000.3,0019.72,0005.31,0003.88
2022-02-21 17:52:00,,0811.7,5.00,0.00,24.3,23.6,00.0,33.3,26.2,12.3,0000.0,0018.39,0005.27,0003.90
2022-02-21 17:53:00,,0811.7,5.00,0.00,24.4,23.6,00.0,33.3,26.2,12.4,0000.0,0016.99,0005.24,0003.91
2022-02-21 17:54:00,,0811.6,5.01,0.00,24.4,23.6,00.0,33.3,26.2,12.6,0000.0,0016.39,0005.21,0003.94
2022-02-21 17:55:00,,0811.5,5.00,0.00,24.3,23.6,00.0,33.3,26.2,12.5,0000.0,0016.84,0005.21,0003.96
2022-02-21 17:56:00,,0811.6,5.00,0.00,24.3,23.5,00.0,33.3,26.2,12.5,0000.0,0016.76,0005.21,0004.00
2022-02-21 17:57:00,,0811.7,5.00,0.00,24.3,23.5,00.0,33.3,26.2,12.5,0000.1,0016.52,0005.22,0004.03
2022-02-21 17:58:00,,0811.6,5.00,0.00,24.3,23.5,00.0,33.3,26.1,12.6,0000.6,0015.49,0005.14,0004.04
2022-02-21 17:59:00,,0811.7,5.00,0.00,24.3,23.5,00.0,33.3,26.1,12.3,0001.0,0014.54,0005.07,0004.06
